Hourly Weather Roundup
Issued by NWS Central Illinois

Home | Current Version | Previous Version | Text Only | Print | Product List | Glossary On
Versions: 1 2 3 4 5 6 7 8 9 10 11 12 13 14 15 16 17 18 19 20 21 22 23 24 25 26 27 28 29 30 31 32 33 34 35 36 37 38 39 40 41 42 43 44 45 46 47 48 49 50
000
NZUS43 KILX 270210
HWRILX

AREA WEATHER ROUNDUP
NATIONAL WEATHER SERVICE, LINCOLN IL
900 PM CDT TUE AUG 26 2014


CITY           SKY/WX    TMP DP  RH WIND       PRES   REMARKS
BLOOMINGTON    MOCLDY    75  66  73 CALM      30.11R
CHAMPAIGN      CLOUDY    74  67  78 SW6       30.08F THUNDER
DECATUR        LGT RAIN  72  66  81 SW13      30.08F
FLORA          CLEAR     81  73  76 E5        30.08R HX  85
GALESBURG      PTCLDY    73  69  87 CALM      30.10R
JACKSONVILLE   PTCLDY    83  79  87 N6        30.06S HX  93
LACON          PTCLDY    77  72  84 CALM      30.08R
LAWRENCEVILLE  CLEAR     77  71  82 CALM      30.08R
LITCHFIELD     MOCLDY    80  75  85 SE5       30.06S HX  85
$$


CITY           SKY/WX    TMP DP  RH WIND       PRES   REMARKS
LINCOLN        CLOUDY    76  69  77 S6        30.05S
MACOMB         CLEAR     73  71  92 N3        30.11R
MATTOON        CLOUDY    75  69  81 S5        30.08R
MT CARMEL AP   CLEAR     77  73  88 CALM      30.08R
OLNEY-NOBLE AP PTCLDY    75  72  88 CALM      30.07R
PARIS          MOCLDY    71  70  96 CALM      30.09R
PEORIA         CLEAR     80  71  74 NE5       30.08R HX  84
PONTIAC        MOCLDY    77  75  94 CALM      30.08S
RANTOUL        CLOUDY    77  70  78 CALM      30.08F
ROBINSON       PTCLDY    73  71  93 CALM      30.09R
SPRINGFIELD    MOCLDY    83  72  69 E9        30.05R HX  88
TAYLORVILLE    TSTM      70  66  88 N12G23    30.10R
$$

...REGIONAL REPORTS...


CITY           SKY/WX    TMP DP  RH WIND       PRES   REMARKS
CHICAGO O`HARE PTCLDY    74  65  73 NE7       30.09R
KANKAKEE       MOCLDY    76  72  88 CALM      30.09R
MOLINE         CLEAR     76  65  68 N3        30.09R
MOUNT VERNON   PTCLDY    81  73  78 CALM      30.07R HX  85
PITTSFIELD     CLEAR     81  74  78 N8        30.08R HX  87
QUINCY         CLEAR     77  72  84 N8        30.08R
ROCKFORD       PTCLDY    71  63  75 N7        30.12R
$$


CITY           SKY/WX    TMP DP  RH WIND       PRES   REMARKS
BURLINGTON     PTCLDY    74  69  85 N6        30.09R
CEDAR RAPIDS   CLEAR     70  65  84 N6        30.11R
DES MOINES     MOCLDY    74  62  66 E6        30.12R
KIRKSVILLE     CLEAR     73  70  90 N5        30.10S
OTTUMWA        PTCLDY    72  66  81 N6        30.10S
ST LOUIS       CLOUDY    84  71  65 CALM      30.05R HX  89
$$


CITY           SKY/WX    TMP DP  RH WIND       PRES   REMARKS
TERRE HAUTE    MOCLDY    73  69  87 S5        30.08R
EVANSVILLE     CLEAR     83  73  72 NE6       30.07R HX  89
INDIANAPOLIS   CLOUDY    74  69  85 SW5       30.08R
LAFAYETTE      MOCLDY    71  69  93 CALM      30.09R
MADISON        PTCLDY    66  60  81 CALM      30.12R
MILWAUKEE      PTCLDY    69  59  70 N5        30.09S
$$




USA.gov is the U.S. government's official web portal to all federal, state and local government web resources and services.